CCA939 ZBAA-LIRF

Flight info

Callsign CCA939
Flight time N/A
Altitude 30100
Route K0919S0920 IDKEX B339 ASILA A575 INTIK Y655 AROGU A575 DARNO/N0488F300 P982 TR A308 ABK R104 BA/N0487F320 R229 XV B228 LITUN N869 UNISO L870 ROMUM/N0481F340 L870 RUROS P157 OKDON N87 ROGID M854 KETOL DCT USUPO DCT ENETI DCT KOSKA/N0476F340 DCT LUSID DCT PESEL DCT RENKI DCT MAREM DCT RUDAP DCT BAMTA DCT RADIZ DCT DETSA/N0482F330 DCT DIPVO DCT NIKMA DCT RITEB
Aircraft B77W/H-SDE3FGHIJ1J2J3J4J5M1P2RWXYZ/LB1D1

Departure

Time 2026-05-06 23:20
Airport Beijing Capital International Airport (ZBAA)

Arrival

Time N/A
Airport Rome–Fiumicino Leonardo da Vinci International Airport (LIRF)
Time Latitude Longitude Altitude Speed Heading
2026-05-06 22:51 40.07677 116.60239 124 ft 0 kts 26°
2026-05-06 23:07 40.07672 116.60236 120 ft 4 kts 26°
2026-05-06 23:07 40.07648 116.60221 120 ft 4 kts 26°
2026-05-06 23:07 40.07627 116.60207 123 ft 4 kts 32°
2026-05-06 23:07 40.07610 116.60184 123 ft 4 kts 73°
2026-05-06 23:08 40.07609 116.60152 123 ft 4 kts 108°
2026-05-06 23:08 40.07619 116.60119 123 ft 4 kts 115°
2026-05-06 23:08 40.07623 116.60109 123 ft 0 kts 113°
2026-05-06 23:11 40.07620 116.60117 128 ft 3 kts 113°
2026-05-06 23:12 40.07606 116.60160 126 ft 6 kts 114°
2026-05-06 23:12 40.07585 116.60212 124 ft 9 kts 122°
2026-05-06 23:12 40.07521 116.60293 125 ft 14 kts 147°
2026-05-06 23:12 40.07439 116.60333 125 ft 12 kts 169°
2026-05-06 23:13 40.07370 116.60345 125 ft 8 kts 173°
2026-05-06 23:13 40.07344 116.60325 126 ft 2 kts 234°
2026-05-06 23:13 40.07337 116.60279 126 ft 8 kts 263°
2026-05-06 23:13 40.07330 116.60205 125 ft 9 kts 263°
2026-05-06 23:14 40.07323 116.60126 127 ft 9 kts 263°
2026-05-06 23:14 40.07315 116.60042 123 ft 10 kts 263°
2026-05-06 23:14 40.07297 116.59992 126 ft 10 kts 219°
2026-05-06 23:14 40.07223 116.59989 126 ft 12 kts 174°
2026-05-06 23:15 40.07134 116.60002 124 ft 14 kts 173°
2026-05-06 23:15 40.07025 116.60019 124 ft 18 kts 173°
2026-05-06 23:15 40.06891 116.60040 124 ft 20 kts 173°
2026-05-06 23:15 40.06753 116.60061 123 ft 20 kts 173°
2026-05-06 23:16 40.06615 116.60083 126 ft 20 kts 173°
2026-05-06 23:16 40.06477 116.60105 126 ft 20 kts 173°
2026-05-06 23:16 40.06339 116.60126 124 ft 20 kts 173°
2026-05-06 23:16 40.06201 116.60148 125 ft 20 kts 173°
2026-05-06 23:17 40.06063 116.60169 125 ft 20 kts 173°
2026-05-06 23:17 40.05924 116.60191 125 ft 20 kts 173°
2026-05-06 23:17 40.05785 116.60213 126 ft 20 kts 173°
2026-05-06 23:17 40.05645 116.60235 124 ft 20 kts 173°
2026-05-06 23:18 40.05562 116.60245 124 ft 8 kts 190°
2026-05-06 23:18 40.05542 116.60208 124 ft 5 kts 254°
2026-05-06 23:18 40.05539 116.60144 127 ft 9 kts 269°
2026-05-06 23:18 40.05566 116.60049 124 ft 13 kts 303°
2026-05-06 23:19 40.05633 116.60003 126 ft 8 kts 351°
2026-05-06 23:19 40.05644 116.60001 124 ft 1 kts 352°
2026-05-06 23:19 40.05785 116.59977 124 ft 53 kts 353°
2026-05-06 23:19 40.06416 116.59878 124 ft 128 kts 353°
2026-05-06 23:20 40.07522 116.59707 238 ft 180 kts 354°
2026-05-06 23:20 40.08808 116.59546 850 ft 189 kts 353°
2026-05-06 23:20 40.10054 116.59365 1945 ft 170 kts 354°
2026-05-06 23:20 40.11209 116.59178 2757 ft 166 kts 354°
2026-05-06 23:21 40.12360 116.58992 3120 ft 167 kts 354°
2026-05-06 23:21 40.13518 116.58799 3441 ft 170 kts 354°
2026-05-06 23:21 40.14740 116.58588 3587 ft 183 kts 354°
2026-05-06 23:21 40.16050 116.58346 3802 ft 197 kts 355°
2026-05-06 23:22 40.17449 116.58122 4080 ft 207 kts 356°
2026-05-06 23:22 40.18920 116.57900 4338 ft 222 kts 355°
2026-05-06 23:22 40.20501 116.57659 4703 ft 233 kts 355°
2026-05-06 23:22 40.22135 116.57404 5240 ft 240 kts 355°
2026-05-06 23:23 40.23811 116.57140 5802 ft 245 kts 355°
2026-05-06 23:23 40.25515 116.56868 6394 ft 249 kts 355°
2026-05-06 23:23 40.27222 116.56583 6930 ft 252 kts 354°
2026-05-06 23:23 40.28953 116.56276 7538 ft 253 kts 352°
2026-05-06 23:24 40.30732 116.55943 7872 ft 263 kts 354°
2026-05-06 23:24 40.32566 116.55653 8377 ft 268 kts 354°
2026-05-06 23:24 40.34428 116.55354 8863 ft 271 kts 353°
2026-05-06 23:24 40.36318 116.55042 9070 ft 275 kts 353°
2026-05-06 23:25 40.38212 116.54725 9734 ft 275 kts 353°
2026-05-06 23:25 40.40129 116.54403 10221 ft 281 kts 353°
2026-05-06 23:25 40.42127 116.54073 10386 ft 299 kts 354°
2026-05-06 23:25 40.44259 116.54026 10526 ft 316 kts
2026-05-06 23:26 40.46521 116.54256 10752 ft 333 kts
2026-05-06 23:26 40.48874 116.54498 11118 ft 345 kts
2026-05-06 23:26 40.51273 116.54704 11788 ft 347 kts
2026-05-06 23:26 40.53687 116.54888 12488 ft 347 kts
2026-05-06 23:27 40.56121 116.55068 13041 ft 354 kts
2026-05-06 23:27 40.58597 116.55250 13617 ft 358 kts
2026-05-06 23:27 40.61100 116.55444 14169 ft 363 kts
2026-05-06 23:27 40.63634 116.55635 14727 ft 366 kts
2026-05-06 23:28 40.66189 116.55824 15304 ft 370 kts
2026-05-06 23:28 40.68773 116.56017 15837 ft 374 kts
2026-05-06 23:28 40.71380 116.56216 16431 ft 376 kts 360°
2026-05-06 23:28 40.74002 116.56414 16991 ft 380 kts 359°
2026-05-06 23:29 40.76655 116.56624 17518 ft 384 kts 359°
2026-05-06 23:29 40.79325 116.56719 18091 ft 384 kts 354°
2026-05-06 23:29 40.81994 116.56524 18620 ft 385 kts 351°
2026-05-06 23:29 40.84681 116.56232 19072 ft 389 kts 351°
2026-05-06 23:30 40.87389 116.55906 19532 ft 393 kts 351°
2026-05-06 23:30 40.90127 116.55581 19996 ft 397 kts 351°
2026-05-06 23:30 40.92889 116.55286 20484 ft 399 kts 351°
2026-05-06 23:30 40.95669 116.55011 20966 ft 402 kts 351°
2026-05-06 23:31 40.98473 116.54743 21421 ft 405 kts 351°
2026-05-06 23:31 41.01298 116.54474 21872 ft 409 kts 351°
2026-05-06 23:31 41.04147 116.54206 22302 ft 412 kts 351°
2026-05-06 23:31 41.07016 116.53936 22722 ft 415 kts 351°
2026-05-06 23:32 41.09872 116.53664 23114 ft 419 kts 351°
2026-05-06 23:32 41.12789 116.53385 23556 ft 421 kts 351°
2026-05-06 23:32 41.15721 116.53107 23946 ft 424 kts 351°
2026-05-06 23:32 41.18675 116.52826 24290 ft 427 kts 351°
2026-05-06 23:33 41.21619 116.52393 24615 ft 424 kts 343°
2026-05-06 23:33 41.24458 116.51383 24947 ft 422 kts 336°
2026-05-06 23:33 41.27181 116.49947 25256 ft 422 kts 330°
2026-05-06 23:33 41.29747 116.48064 25556 ft 421 kts 325°
2026-05-06 23:34 41.32259 116.46049 25896 ft 423 kts 325°
2026-05-06 23:34 41.34781 116.44026 26238 ft 424 kts 325°
2026-05-06 23:34 41.37317 116.42000 26571 ft 426 kts 324°
2026-05-06 23:34 41.39864 116.39969 26887 ft 427 kts 324°
2026-05-06 23:35 41.42425 116.37933 27218 ft 430 kts 324°
2026-05-06 23:35 41.45002 116.35887 27499 ft 432 kts 324°
2026-05-06 23:35 41.47589 116.33836 27796 ft 434 kts 324°
2026-05-06 23:35 41.50189 116.31774 28066 ft 437 kts 325°
2026-05-06 23:36 41.52818 116.29688 28223 ft 441 kts 324°
2026-05-06 23:36 41.55457 116.27590 28487 ft 443 kts 324°
2026-05-06 23:36 41.58105 116.25485 28803 ft 443 kts 324°
2026-05-06 23:36 41.60759 116.23369 29077 ft 445 kts 325°
2026-05-06 23:37 41.63421 116.21249 29343 ft 446 kts 325°
2026-05-06 23:37 41.66095 116.19118 29554 ft 448 kts 325°
2026-05-06 23:37 41.68778 116.16977 29771 ft 450 kts 325°
2026-05-06 23:37 41.71438 116.14852 29987 ft 452 kts 325°
2026-05-06 23:38 41.74134 116.12695 30291 ft 452 kts 325°
2026-05-06 23:38 41.79552 116.08353 30379 ft 454 kts 325°
2026-05-06 23:39 41.84979 116.03998 30373 ft 449 kts 325°
2026-05-06 23:39 41.90302 115.99716 30389 ft 449 kts 325°
2026-05-06 23:40 41.95185 115.94649 30393 ft 442 kts 311°
2026-05-06 23:40 41.98897 115.88104 30394 ft 441 kts 298°
2026-05-06 23:41 42.01795 115.80824 30395 ft 443 kts 297°
2026-05-06 23:41 42.04703 115.73508 30400 ft 444 kts 297°
2026-05-06 23:42 42.07643 115.66180 30402 ft 445 kts 298°
2026-05-06 23:42 42.10595 115.58845 30400 ft 446 kts 298°
2026-05-06 23:43 42.13544 115.51501 30407 ft 445 kts 297°
2026-05-06 23:43 42.16483 115.44161 30410 ft 445 kts 297°
2026-05-06 23:44 42.19411 115.36826 30410 ft 444 kts 298°
2026-05-06 23:44 42.22334 115.29489 30421 ft 444 kts 298°
2026-05-06 23:45 42.25219 115.22124 30421 ft 444 kts 297°
2026-05-06 23:45 42.28002 115.14684 30428 ft 444 kts 296°
2026-05-06 23:46 42.30773 115.07229 30421 ft 444 kts 296°
2026-05-06 23:46 42.33553 114.99771 30431 ft 445 kts 297°
2026-05-06 23:47 42.36341 114.92292 30430 ft 446 kts 296°
2026-05-06 23:47 42.39128 114.84799 30433 ft 446 kts 296°
2026-05-06 23:48 42.41913 114.77290 30444 ft 447 kts 296°
2026-05-06 23:48 42.44696 114.69769 30438 ft 447 kts 296°
2026-05-06 23:49 42.47471 114.62247 30442 ft 446 kts 296°
2026-05-06 23:49 42.50221 114.54773 30445 ft 446 kts 296°
2026-05-06 23:50 42.52984 114.47242 30436 ft 446 kts 297°
2026-05-06 23:50 42.57118 114.35939 30444 ft 446 kts 297°
2026-05-06 23:51 42.59868 114.28395 30451 ft 446 kts 296°
2026-05-06 23:51 42.62615 114.20839 30449 ft 446 kts 297°
2026-05-06 23:52 42.65456 114.13338 30458 ft 446 kts 298°
2026-05-06 23:52 42.68362 114.05881 30454 ft 447 kts 298°
2026-05-06 23:53 42.71259 113.98404 30457 ft 447 kts 298°
2026-05-06 23:53 42.74138 113.90909 30457 ft 447 kts 298°
2026-05-06 23:54 42.77011 113.83401 30462 ft 448 kts 298°
2026-05-06 23:54 42.79863 113.75924 30464 ft 448 kts 298°
2026-05-06 23:55 42.82731 113.68388 30465 ft 448 kts 298°
2026-05-06 23:55 42.85596 113.60839 30469 ft 448 kts 298°
2026-05-06 23:56 42.88456 113.53285 30471 ft 449 kts 298°
2026-05-06 23:56 42.91313 113.45719 30468 ft 449 kts 298°
2026-05-06 23:57 42.94166 113.38140 30456 ft 449 kts 299°
2026-05-06 23:57 42.97008 113.30570 30466 ft 448 kts 299°
2026-05-06 23:58 42.99844 113.23001 30463 ft 447 kts 299°
2026-05-06 23:58 43.02683 113.15442 30470 ft 447 kts 299°
2026-05-06 23:59 43.05563 113.07916 30449 ft 447 kts 300°
2026-05-06 23:59 43.08443 113.00387 30467 ft 447 kts 299°
2026-05-07 00:00 43.11314 112.92846 30477 ft 447 kts 299°
2026-05-07 00:00 43.13698 112.86557 30479 ft 448 kts 299°
2026-05-07 00:01 43.17050 112.77690 30463 ft 449 kts 299°
2026-05-07 00:01 43.19916 112.70089 30478 ft 450 kts 299°
2026-05-07 00:02 43.22783 112.62462 30484 ft 450 kts 299°
2026-05-07 00:02 43.25647 112.54825 30487 ft 451 kts 299°
2026-05-07 00:03 43.28026 112.48462 30473 ft 451 kts 299°
2026-05-07 00:03 43.31348 112.39555 30478 ft 451 kts 299°
2026-05-07 00:04 43.34201 112.31883 30495 ft 451 kts 299°
2026-05-07 00:04 43.36590 112.25445 30504 ft 451 kts 300°
2026-05-07 00:05 43.39630 112.17452 30468 ft 448 kts 305°
2026-05-07 00:05 43.43688 112.11052 30493 ft 444 kts 319°
2026-05-07 00:06 43.48763 112.06273 30490 ft 443 kts 330°
2026-05-07 00:06 43.54053 112.01883 30488 ft 444 kts 328°
2026-05-07 00:07 43.59342 111.97450 30488 ft 445 kts 329°
2026-05-07 00:07 43.64639 111.93020 30480 ft 445 kts 329°
2026-05-07 00:08 43.69614 111.87929 30471 ft 446 kts 319°
2026-05-07 00:08 43.73989 111.81861 30476 ft 445 kts 316°
2026-05-07 00:09 43.78306 111.75722 30471 ft 445 kts 316°
2026-05-07 00:09 43.82627 111.69598 30481 ft 444 kts 316°
2026-05-07 00:10 43.86949 111.63477 30461 ft 444 kts 316°
2026-05-07 00:10 43.91272 111.57345 30467 ft 445 kts 316°
2026-05-07 00:11 43.95592 111.51204 30474 ft 445 kts 316°
2026-05-07 00:11 43.99910 111.45052 30470 ft 445 kts 316°
2026-05-07 00:12 44.04229 111.38883 30470 ft 445 kts 316°
2026-05-07 00:12 44.08550 111.32700 30462 ft 446 kts 316°
2026-05-07 00:13 44.12870 111.26503 30461 ft 446 kts 316°
2026-05-07 00:13 44.17187 111.20295 30471 ft 446 kts 316°
2026-05-07 00:14 44.21505 111.14074 30454 ft 447 kts 316°
2026-05-07 00:14 44.25823 111.07838 30460 ft 447 kts 316°
2026-05-07 00:15 44.30136 111.01595 30457 ft 447 kts 316°
2026-05-07 00:15 44.34413 110.95391 30450 ft 446 kts 316°
2026-05-07 00:16 44.38711 110.89140 30450 ft 446 kts 316°
2026-05-07 00:16 44.43002 110.82887 30454 ft 445 kts 316°
2026-05-07 00:17 44.47291 110.76622 30464 ft 446 kts 316°
2026-05-07 00:17 44.51584 110.70338 30432 ft 446 kts 316°
2026-05-07 00:18 44.55871 110.64049 30447 ft 446 kts 316°
2026-05-07 00:18 44.60156 110.57748 30457 ft 447 kts 316°
2026-05-07 00:19 44.64443 110.51429 30455 ft 447 kts 316°
2026-05-07 00:19 44.68729 110.45097 30429 ft 447 kts 316°
2026-05-07 00:20 44.73008 110.38759 30463 ft 447 kts 316°
2026-05-07 00:20 44.77289 110.32406 30452 ft 447 kts 316°
2026-05-07 00:21 44.81565 110.26044 30450 ft 447 kts 316°
2026-05-07 00:21 44.85842 110.19666 30446 ft 448 kts 316°
2026-05-07 00:22 44.90112 110.13286 30440 ft 447 kts 316°
2026-05-07 00:22 44.94260 110.06756 30444 ft 447 kts 313°
2026-05-07 00:23 44.98305 110.00083 30440 ft 447 kts 313°
2026-05-07 00:23 45.02351 109.93414 30447 ft 447 kts 313°
2026-05-07 00:24 45.06410 109.86756 30436 ft 446 kts 314°
2026-05-07 00:24 45.10465 109.80110 30436 ft 446 kts 314°
2026-05-07 00:25 45.14510 109.73467 30435 ft 445 kts 313°
2026-05-07 00:25 45.18543 109.66828 30442 ft 444 kts 313°
2026-05-07 00:26 45.22540 109.60231 30427 ft 443 kts 314°
2026-05-07 00:26 45.26546 109.53603 30432 ft 442 kts 314°
2026-05-07 00:27 45.30533 109.46989 30440 ft 440 kts 314°
2026-05-07 00:27 45.34513 109.40374 30440 ft 440 kts 314°
2026-05-07 00:28 45.38489 109.33750 30438 ft 440 kts 313°
2026-05-07 00:28 45.42463 109.27113 30436 ft 441 kts 313°
2026-05-07 00:29 45.46437 109.20458 30434 ft 441 kts 313°
2026-05-07 00:30 45.54389 109.07098 30431 ft 442 kts 313°
2026-05-07 00:30 45.58356 109.00403 30422 ft 441 kts 314°
2026-05-07 00:31 45.62307 108.93728 30424 ft 439 kts 314°
2026-05-07 00:31 45.66241 108.87062 30427 ft 438 kts 314°
2026-05-07 00:32 45.70161 108.80403 30438 ft 437 kts 313°
2026-05-07 00:32 45.74078 108.73736 30404 ft 437 kts 314°
2026-05-07 00:33 45.77986 108.67096 30429 ft 436 kts 314°
2026-05-07 00:33 45.81894 108.60480 30439 ft 435 kts 314°
2026-05-07 00:34 45.85767 108.53906 30434 ft 434 kts 314°
2026-05-07 00:34 45.89660 108.47277 30443 ft 435 kts 314°
2026-05-07 00:35 45.93549 108.40636 30424 ft 434 kts 314°
2026-05-07 00:35 45.97427 108.33998 30430 ft 433 kts 314°
2026-05-07 00:36 46.01296 108.27359 30413 ft 433 kts 314°
2026-05-07 00:36 46.04506 108.21838 30418 ft 433 kts 314°
2026-05-07 00:37 46.08362 108.15194 30370 ft 432 kts 314°
2026-05-07 00:37 46.12205 108.08553 30381 ft 430 kts 314°
2026-05-07 00:38 46.16029 108.01931 30413 ft 429 kts 314°
2026-05-07 00:38 46.19850 107.95299 30383 ft 430 kts 314°
2026-05-07 00:39 46.23673 107.88647 30386 ft 430 kts 314°
2026-05-07 00:39 46.27493 107.81985 30357 ft 430 kts 314°
2026-05-07 00:40 46.31298 107.75332 30381 ft 429 kts 314°
2026-05-07 00:40 46.35095 107.68677 30360 ft 429 kts 314°
2026-05-07 00:41 46.38887 107.62015 30377 ft 428 kts 314°
2026-05-07 00:41 46.42671 107.55351 30378 ft 428 kts 314°
2026-05-07 00:42 46.46448 107.48684 30374 ft 427 kts 314°
2026-05-07 00:42 46.50217 107.42014 30363 ft 427 kts 314°
2026-05-07 00:43 46.53977 107.35345 30371 ft 427 kts 314°
2026-05-07 00:43 46.57736 107.28661 30363 ft 427 kts 314°
2026-05-07 00:44 46.61492 107.21966 30325 ft 427 kts 313°
2026-05-07 00:44 46.65246 107.15257 30350 ft 428 kts 313°
2026-05-07 00:45 46.69004 107.08527 30356 ft 429 kts 313°
2026-05-07 00:45 46.72768 107.01767 30355 ft 430 kts 313°
2026-05-07 00:46 46.76512 106.95028 30345 ft 431 kts 313°
2026-05-07 00:46 46.80279 106.88233 30329 ft 430 kts 312°
2026-05-07 00:47 46.84040 106.81424 30332 ft 431 kts 312°
2026-05-07 00:47 46.87766 106.74545 30332 ft 432 kts 311°
2026-05-07 00:48 46.91479 106.67625 30312 ft 433 kts 311°
2026-05-07 00:48 46.95193 106.60694 30312 ft 433 kts 311°
2026-05-07 00:49 46.98908 106.53755 30306 ft 433 kts 311°
2026-05-07 00:49 47.02622 106.46804 30317 ft 434 kts 311°
2026-05-07 00:50 47.06344 106.39822 30311 ft 435 kts 311°
2026-05-07 00:50 47.10065 106.32821 30303 ft 435 kts 311°
2026-05-07 00:51 47.13786 106.25804 30298 ft 435 kts 311°
2026-05-07 00:51 47.17498 106.18785 30301 ft 435 kts 311°
2026-05-07 00:52 47.21202 106.11764 30296 ft 435 kts 311°
2026-05-07 00:52 47.24900 106.04735 30304 ft 434 kts 311°
2026-05-07 00:53 47.28590 105.97705 30303 ft 434 kts 311°
2026-05-07 00:53 47.32275 105.90665 30303 ft 434 kts 311°
2026-05-07 00:54 47.35961 105.83606 30305 ft 435 kts 311°
2026-05-07 00:54 47.39650 105.76523 30302 ft 435 kts 311°
2026-05-07 00:55 47.43337 105.69424 30299 ft 436 kts 310°
2026-05-07 00:55 47.46996 105.62361 30294 ft 436 kts 310°
2026-05-07 00:56 47.50678 105.55237 30289 ft 436 kts 310°
2026-05-07 00:56 47.54359 105.48099 30283 ft 437 kts 310°
2026-05-07 00:57 47.58064 105.40970 30283 ft 437 kts 310°
2026-05-07 00:57 47.61783 105.33834 30276 ft 437 kts 310°
2026-05-07 00:58 47.65492 105.26687 30252 ft 437 kts 310°